Torna al catalogo

H-2A R/B

AttivoPO
NORAD 28932·ROCKET BODY·🇯🇵 Japan

Lanciato Jan 24, 2006 da Tanegashima Space Center

Loading…

Prossimi Passaggi (prossime 24 ore)

TLE

AggiornatoSource: Space-Track

Epoca: Sep 14, 2026, 09:36 UTC

1 28932U 06002B   26257.40030777  .00005186  00000-0  24316-3 0  9991
2 28932  98.2668  61.4403 0048657 319.2403  40.5192 15.19150069123065

Traccia H-2A R/B in tempo reale con AllMySat

Download on the App Store